This demonstration page uses our WeatherBlox Daily Observations layout. Learn more.

Left ArrowRight Arrow

44.8408, -93.29828

Hourly Observations for September 11, 2016

Temp ( °F °C ) Dew Point ( °F °C ) Humidity (%) Winds ( mph kmh ) Pressure ( in mb ) Visibility ( mi km ) Precip ( " mm )
12:53 am 00:53 Mostly Clear 60 15.6 52 11.1 75 75 SSW 3 6 30.06 1018 10 16 0.00 0.00
1:53 am 01:53 Clear 58 14.4 51 10.6 78 78 S 3 6 30.06 1018 10 16 0.00 0.00
2:53 am 02:53 Clear 58 14.4 50 10 75 75 SSW 3 6 30.06 1018 10 16 0.00 0.00
3:53 am 03:53 Partly Cloudy 58 14.4 50 10 75 75 S 5 7 30.06 1018 10 16 0.00 0.00
4:53 am 04:53 Mostly Cloudy 59 15 50 10 72 72 SSW 3 6 30.05 1018 10 16 0.00 0.00
5:53 am 05:53 Mostly Cloudy 58 14.4 50 10 75 75 S 6 9 30.05 1018 10 16 0.00 0.00
6:53 am 06:53 Partly Cloudy 58 14.4 49 9.4 72 72 S 5 7 30.05 1018 10 16 0.00 0.00
7:53 am 07:53 Partly Cloudy 60 15.6 50 10 70 70 SSW 5 7 30.06 1018 10 16 0.00 0.00
8:53 am 08:53 Mostly Sunny 65 18.3 50 10 59 59 SSW 13 20 30.04 1017 10 16 0.00 0.00
9:53 am 09:53 Mostly Sunny 67 19.4 50 10 55 55 SSW 13 20 30.04 1017 10 16 0.00 0.00
10:53 am 10:53 Mostly Sunny 71 21.7 52 11.1 51 51 SSW 10 17 30.02 1017 10 16 0.00 0.00
11:53 am 11:53 Mostly Sunny 73 22.8 51 10.6 46 46 SW 16 26 29.99 1016 10 16 0.00 0.00
12:53 pm 12:53 Partly Cloudy 76 24.4 51 10.6 42 42 S 16 26 29.96 1015 10 16 0.00 0.00
1:53 pm 13:53 Partly Cloudy 77 25 50 10 39 39 S 22 35 29.93 1013 10 16 0.00 0.00
2:53 pm 14:53 Mostly Sunny 78 25.6 49 9.4 36 36 SSW 18 30 29.91 1013 10 16 0.00 0.00
3:53 pm 15:53 Mostly Sunny 79 26.1 50 10 36 36 SSW 17 28 29.90 1012 10 16 0.00 0.00
4:53 pm 16:53 Mostly Sunny 79 26.1 51 10.6 38 38 S 21 33 29.88 1012 10 16 0.00 0.00
5:53 pm 17:53 Mostly Sunny 79 26.1 52 11.1 39 39 S 15 24 29.86 1011 10 16 0.00 0.00
6:53 pm 18:53 Mostly Sunny 77 25 52 11.1 42 42 S 10 17 29.87 1011 10 16 0.00 0.00
7:53 pm 19:53 Partly Cloudy 75 23.9 53 11.7 46 46 S 12 19 29.87 1011 10 16 0.00 0.00
8:53 pm 20:53 Mostly Cloudy 72 22.2 54 12.2 53 53 SSE 10 17 29.88 1012 10 16 0.00 0.00
9:53 pm 21:53 Mostly Clear 68 20 54 12.2 61 61 SE 8 13 29.90 1013 10 16 0.00 0.00
10:53 pm 22:53 Mostly Clear 69 20.6 54 12.2 59 59 S 12 19 29.91 1013 10 16 0.00 0.00
11:53 pm 23:53 Mostly Clear 68 20 54 12.2 61 61 S 10 17 29.91 1013 10 16 0.00 0.00

Powered by AerisWeather